VOE06AL LESO-LEMG

Flight info

Callsign VOE06AL
Flight time 1h 13m
Altitude 33000
Route PPN N857 VASUM DCT BANEV DCT BAN DCT PINAR DCT CJN DCT INTAX DCT NASOS DCT ANZAN L27 BLN
Aircraft A320/M-SDE3FGHIRWY/LB1

Departure

Time 2026-05-06 19:19
Airport San Sebastián Airport (LESO)

Arrival

Time 2026-05-06 20:32
Airport Málaga-Costa del Sol Airport (LEMG)
Time Latitude Longitude Altitude Speed Heading
2026-05-06 18:58 43.35603 -1.79268 18 ft 0 kts 39°
2026-05-06 19:15 43.35611 -1.79259 17 ft 6 kts 39°
2026-05-06 19:15 43.35640 -1.79227 17 ft 5 kts 39°
2026-05-06 19:15 43.35652 -1.79201 17 ft 2 kts 75°
2026-05-06 19:15 43.35644 -1.79172 18 ft 6 kts 124°
2026-05-06 19:16 43.35621 -1.79123 18 ft 8 kts 104°
2026-05-06 19:16 43.35669 -1.79041 18 ft 15 kts 39°
2026-05-06 19:16 43.35750 -1.78951 18 ft 15 kts 38°
2026-05-06 19:16 43.35831 -1.78862 20 ft 15 kts 38°
2026-05-06 19:17 43.35914 -1.78771 20 ft 16 kts 38°
2026-05-06 19:17 43.36005 -1.78669 22 ft 20 kts 39°
2026-05-06 19:17 43.36118 -1.78546 22 ft 21 kts 39°
2026-05-06 19:17 43.36208 -1.78427 24 ft 13 kts 72°
2026-05-06 19:18 43.36246 -1.78404 24 ft 6 kts 270°
2026-05-06 19:18 43.36221 -1.78432 26 ft 4 kts 221°
2026-05-06 19:18 43.36206 -1.78451 24 ft 0 kts 220°
2026-05-06 19:18 43.36130 -1.78532 22 ft 48 kts 218°
2026-05-06 19:19 43.35659 -1.79049 18 ft 126 kts 218°
2026-05-06 19:19 43.34873 -1.79901 417 ft 142 kts 219°
2026-05-06 19:19 43.34111 -1.80851 921 ft 155 kts 229°
2026-05-06 19:19 43.33404 -1.82019 1275 ft 163 kts 230°
2026-05-06 19:20 43.32647 -1.83232 1635 ft 173 kts 230°
2026-05-06 19:20 43.31782 -1.84578 1836 ft 199 kts 228°
2026-05-06 19:20 43.30810 -1.86058 2162 ft 219 kts 228°
2026-05-06 19:20 43.29676 -1.87661 2452 ft 247 kts 218°
2026-05-06 19:21 43.28036 -1.88562 3022 ft 264 kts 186°
2026-05-06 19:21 43.26221 -1.88324 3832 ft 270 kts 165°
2026-05-06 19:21 43.24491 -1.87606 4691 ft 274 kts 161°
2026-05-06 19:21 43.22769 -1.86767 5495 ft 278 kts 159°
2026-05-06 19:22 43.20928 -1.85819 6378 ft 282 kts 159°
2026-05-06 19:22 43.19072 -1.84865 7165 ft 287 kts 160°
2026-05-06 19:22 43.17221 -1.83931 7979 ft 291 kts 161°
2026-05-06 19:22 43.15304 -1.82988 8832 ft 294 kts 162°
2026-05-06 19:23 43.13363 -1.82051 9692 ft 297 kts 162°
2026-05-06 19:23 43.11420 -1.81122 10365 ft 305 kts 162°
2026-05-06 19:23 43.09371 -1.80150 10565 ft 327 kts 162°
2026-05-06 19:23 43.07142 -1.79096 10700 ft 350 kts 162°
2026-05-06 19:24 43.04784 -1.77981 11058 ft 364 kts 162°
2026-05-06 19:24 43.02365 -1.76840 11662 ft 369 kts 164°
2026-05-06 19:24 42.99874 -1.76056 12301 ft 370 kts 172°
2026-05-06 19:24 42.97320 -1.75490 12975 ft 373 kts 172°
2026-05-06 19:25 42.94749 -1.74926 13649 ft 376 kts 172°
2026-05-06 19:25 42.92155 -1.74357 14239 ft 379 kts 172°
2026-05-06 19:25 42.89538 -1.73777 14820 ft 382 kts 172°
2026-05-06 19:25 42.86902 -1.73192 15354 ft 385 kts 172°
2026-05-06 19:26 42.84249 -1.72603 15921 ft 387 kts 172°
2026-05-06 19:26 42.81583 -1.72013 16489 ft 390 kts 172°
2026-05-06 19:26 42.78888 -1.71419 17056 ft 393 kts 172°
2026-05-06 19:26 42.76162 -1.70994 17613 ft 395 kts 180°
2026-05-06 19:27 42.73454 -1.71213 18159 ft 396 kts 190°
2026-05-06 19:27 42.70781 -1.72114 18652 ft 398 kts 201°
2026-05-06 19:27 42.68249 -1.73646 19140 ft 400 kts 208°
2026-05-06 19:27 42.65754 -1.75337 19632 ft 402 kts 207°
2026-05-06 19:28 42.63236 -1.77033 20098 ft 405 kts 207°
2026-05-06 19:28 42.60699 -1.78735 20561 ft 408 kts 207°
2026-05-06 19:28 42.59009 -1.79869 20856 ft 409 kts 208°
2026-05-06 19:28 42.56434 -1.81596 21316 ft 411 kts 207°
2026-05-06 19:29 42.53858 -1.83323 21727 ft 414 kts 207°
2026-05-06 19:29 42.51259 -1.85062 22138 ft 417 kts 208°
2026-05-06 19:29 42.48680 -1.86785 22536 ft 420 kts 208°
2026-05-06 19:29 42.46064 -1.88535 22932 ft 422 kts 207°
2026-05-06 19:30 42.43374 -1.90335 23312 ft 425 kts 207°
2026-05-06 19:30 42.40753 -1.92083 23693 ft 426 kts 207°
2026-05-06 19:30 42.38055 -1.93880 24029 ft 428 kts 207°
2026-05-06 19:30 42.35415 -1.95635 24378 ft 429 kts 207°
2026-05-06 19:31 42.32733 -1.97416 24716 ft 430 kts 207°
2026-05-06 19:31 42.30040 -1.99207 25020 ft 432 kts 207°
2026-05-06 19:31 42.24624 -2.02812 25622 ft 435 kts 207°
2026-05-06 19:32 42.21906 -2.04615 25918 ft 437 kts 207°
2026-05-06 19:32 42.19175 -2.06423 26205 ft 438 kts 207°
2026-05-06 19:32 42.16434 -2.08238 26493 ft 439 kts 207°
2026-05-06 19:32 42.13687 -2.10052 26790 ft 440 kts 208°
2026-05-06 19:33 42.10934 -2.11868 27071 ft 441 kts 208°
2026-05-06 19:33 42.08174 -2.13688 27327 ft 443 kts 208°
2026-05-06 19:33 42.05401 -2.15514 27581 ft 444 kts 208°
2026-05-06 19:33 42.02623 -2.17338 27826 ft 445 kts 208°
2026-05-06 19:34 41.99835 -2.19167 28081 ft 446 kts 208°
2026-05-06 19:34 41.97037 -2.21001 28299 ft 447 kts 208°
2026-05-06 19:34 41.94241 -2.22831 28522 ft 448 kts 208°
2026-05-06 19:34 41.91442 -2.24662 28833 ft 446 kts 208°
2026-05-06 19:35 41.88655 -2.26487 29160 ft 445 kts 208°
2026-05-06 19:35 41.85880 -2.28309 29485 ft 443 kts 209°
2026-05-06 19:35 41.83109 -2.30126 29784 ft 443 kts 208°
2026-05-06 19:35 41.80378 -2.31910 30074 ft 442 kts 208°
2026-05-06 19:36 41.77611 -2.33712 30337 ft 441 kts 208°
2026-05-06 19:36 41.74854 -2.35504 30586 ft 440 kts 208°
2026-05-06 19:36 41.72098 -2.37295 30862 ft 439 kts 208°
2026-05-06 19:36 41.69351 -2.39080 31136 ft 438 kts 208°
2026-05-06 19:37 41.66615 -2.40859 31399 ft 437 kts 208°
2026-05-06 19:37 41.63889 -2.42629 31662 ft 436 kts 208°
2026-05-06 19:37 41.61163 -2.44398 31918 ft 435 kts 208°
2026-05-06 19:37 41.58441 -2.46164 32183 ft 434 kts 208°
2026-05-06 19:38 41.55730 -2.47919 32454 ft 433 kts 208°
2026-05-06 19:38 41.53025 -2.49666 32684 ft 432 kts 208°
2026-05-06 19:38 41.50322 -2.51412 32913 ft 431 kts 208°
2026-05-06 19:38 41.47628 -2.53148 32961 ft 432 kts 208°
2026-05-06 19:39 41.42216 -2.56637 32974 ft 432 kts 208°
2026-05-06 19:39 41.36800 -2.60119 32958 ft 432 kts 208°
2026-05-06 19:40 41.31032 -2.62415 32945 ft 438 kts 190°
2026-05-06 19:40 41.24890 -2.62316 32956 ft 443 kts 179°
2026-05-06 19:41 41.18729 -2.61755 32952 ft 443 kts 180°
2026-05-06 19:41 41.12622 -2.61218 32949 ft 443 kts 180°
2026-05-06 19:42 41.06464 -2.60673 32942 ft 443 kts 180°
2026-05-06 19:42 41.00310 -2.60126 32949 ft 443 kts 180°
2026-05-06 19:43 40.94171 -2.59572 32944 ft 442 kts 180°
2026-05-06 19:43 40.88034 -2.59014 32937 ft 442 kts 180°
2026-05-06 19:44 40.81907 -2.58462 32939 ft 441 kts 180°
2026-05-06 19:44 40.75770 -2.57912 32945 ft 441 kts 180°
2026-05-06 19:45 40.69650 -2.57361 32939 ft 441 kts 180°
2026-05-06 19:45 40.63523 -2.56809 32937 ft 440 kts 180°
2026-05-06 19:46 40.57445 -2.56255 32939 ft 437 kts 180°
2026-05-06 19:46 40.51342 -2.55711 32936 ft 440 kts 180°
2026-05-06 19:47 40.45229 -2.55177 32937 ft 440 kts 180°
2026-05-06 19:47 40.39165 -2.54821 32932 ft 435 kts 188°
2026-05-06 19:48 40.33329 -2.56415 32930 ft 425 kts 204°
2026-05-06 19:48 40.27809 -2.59202 32926 ft 425 kts 204°
2026-05-06 19:49 40.22280 -2.61971 32899 ft 425 kts 204°
2026-05-06 19:49 40.16751 -2.64726 32924 ft 424 kts 204°
2026-05-06 19:50 40.11236 -2.67478 32944 ft 424 kts 205°
2026-05-06 19:50 40.05723 -2.70240 32933 ft 425 kts 204°
2026-05-06 19:51 40.00196 -2.73001 32937 ft 425 kts 204°
2026-05-06 19:51 39.94712 -2.75725 32920 ft 425 kts 204°
2026-05-06 19:52 39.89186 -2.78466 32925 ft 424 kts 204°
2026-05-06 19:52 39.83667 -2.81205 32931 ft 424 kts 204°
2026-05-06 19:53 39.78153 -2.83934 32933 ft 424 kts 204°
2026-05-06 19:53 39.72633 -2.86658 32930 ft 424 kts 204°
2026-05-06 19:54 39.67126 -2.89382 32926 ft 423 kts 204°
2026-05-06 19:54 39.61628 -2.92099 32923 ft 423 kts 204°
2026-05-06 19:55 39.56124 -2.94808 32925 ft 423 kts 204°
2026-05-06 19:55 39.50631 -2.97510 32913 ft 422 kts 204°
2026-05-06 19:56 39.45156 -3.00207 32926 ft 421 kts 204°
2026-05-06 19:56 39.39676 -3.02897 32912 ft 420 kts 204°
2026-05-06 19:57 39.34208 -3.05565 32908 ft 420 kts 204°
2026-05-06 19:57 39.28718 -3.08228 32860 ft 422 kts 204°
2026-05-06 19:58 39.23217 -3.10899 32866 ft 423 kts 204°
2026-05-06 19:58 39.17711 -3.13572 32871 ft 423 kts 204°
2026-05-06 19:59 39.12226 -3.16237 32873 ft 424 kts 204°
2026-05-06 19:59 39.06698 -3.18912 32866 ft 424 kts 204°
2026-05-06 20:00 39.01170 -3.21574 32883 ft 424 kts 204°
2026-05-06 20:00 38.95647 -3.24233 32890 ft 423 kts 204°
2026-05-06 20:01 38.90124 -3.26891 32890 ft 423 kts 204°
2026-05-06 20:01 38.84607 -3.29541 32892 ft 423 kts 204°
2026-05-06 20:02 38.79122 -3.32171 32889 ft 422 kts 204°
2026-05-06 20:02 38.73669 -3.34777 32896 ft 421 kts 204°
2026-05-06 20:03 38.68180 -3.37394 32893 ft 420 kts 204°
2026-05-06 20:03 38.62714 -3.40005 32888 ft 419 kts 204°
2026-05-06 20:04 38.57245 -3.42613 32871 ft 419 kts 204°
2026-05-06 20:04 38.51771 -3.45217 32865 ft 420 kts 204°
2026-05-06 20:05 38.46279 -3.47821 32861 ft 421 kts 204°
2026-05-06 20:05 38.40809 -3.50417 32849 ft 422 kts 204°
2026-05-06 20:06 38.35295 -3.53027 32858 ft 423 kts 204°
2026-05-06 20:06 38.29778 -3.55632 32847 ft 423 kts 204°
2026-05-06 20:07 38.24246 -3.58238 32852 ft 424 kts 204°
2026-05-06 20:07 38.18761 -3.60940 32850 ft 421 kts 210°
2026-05-06 20:08 38.14072 -3.65245 32847 ft 414 kts 228°
2026-05-06 20:08 38.10652 -3.71075 32842 ft 412 kts 237°
2026-05-06 20:09 38.07458 -3.77056 32849 ft 412 kts 237°
2026-05-06 20:09 38.04223 -3.83067 32866 ft 412 kts 237°
2026-05-06 20:10 38.00971 -3.89088 32853 ft 414 kts 237°
2026-05-06 20:10 37.97719 -3.95121 32850 ft 415 kts 237°
2026-05-06 20:11 37.94463 -4.01158 32850 ft 415 kts 237°
2026-05-06 20:11 37.91194 -4.07193 32854 ft 415 kts 237°
2026-05-06 20:12 37.87925 -4.13220 32554 ft 414 kts 237°
2026-05-06 20:12 37.86279 -4.16250 31308 ft 422 kts 236°
2026-05-06 20:12 37.85172 -4.18286 30530 ft 425 kts 236°
2026-05-06 20:13 37.82990 -4.22296 28992 ft 428 kts 236°
2026-05-06 20:13 37.81299 -4.25399 27638 ft 431 kts 236°
2026-05-06 20:13 37.79590 -4.28535 26528 ft 432 kts 236°
2026-05-06 20:13 37.77903 -4.31626 25978 ft 421 kts 236°
2026-05-06 20:14 37.76249 -4.34652 25303 ft 415 kts 236°
2026-05-06 20:14 37.74638 -4.37603 24647 ft 410 kts 236°
2026-05-06 20:14 37.73552 -4.39595 24215 ft 408 kts 236°
2026-05-06 20:14 37.71446 -4.43447 23762 ft 393 kts 235°
2026-05-06 20:15 37.69919 -4.46231 23636 ft 377 kts 235°
2026-05-06 20:15 37.68453 -4.48901 23529 ft 363 kts 235°
2026-05-06 20:15 37.67037 -4.51476 23385 ft 350 kts 235°
2026-05-06 20:15 37.65673 -4.53956 23262 ft 338 kts 235°
2026-05-06 20:16 37.64778 -4.55584 23161 ft 331 kts 235°
2026-05-06 20:16 37.63354 -4.57817 22870 ft 323 kts 225°
2026-05-06 20:16 37.61550 -4.59575 22427 ft 343 kts 210°
2026-05-06 20:16 37.59335 -4.60799 21603 ft 347 kts 204°
2026-05-06 20:17 37.57158 -4.61882 21405 ft 325 kts 204°
2026-05-06 20:17 37.55117 -4.62872 21268 ft 303 kts 204°
2026-05-06 20:17 37.53203 -4.63797 21076 ft 286 kts 204°
2026-05-06 20:17 37.51404 -4.64673 20581 ft 280 kts 204°
2026-05-06 20:18 37.49582 -4.65570 19731 ft 286 kts 204°
2026-05-06 20:18 37.47681 -4.66515 18651 ft 301 kts 203°
2026-05-06 20:18 37.45688 -4.67510 17453 ft 315 kts 202°
2026-05-06 20:18 37.43606 -4.68547 16147 ft 329 kts 202°
2026-05-06 20:19 37.41437 -4.69624 14834 ft 341 kts 202°
2026-05-06 20:19 37.39192 -4.70735 13638 ft 350 kts 201°
2026-05-06 20:19 37.36983 -4.71824 13199 ft 333 kts 202°
2026-05-06 20:19 37.34892 -4.72854 12924 ft 313 kts 202°
2026-05-06 20:20 37.32922 -4.73821 12670 ft 295 kts 202°
2026-05-06 20:20 37.31065 -4.74735 12408 ft 279 kts 202°
2026-05-06 20:20 37.29305 -4.75602 12150 ft 265 kts 202°
2026-05-06 20:20 37.27624 -4.76429 11907 ft 256 kts 202°
2026-05-06 20:21 37.25986 -4.77237 11647 ft 251 kts 202°
2026-05-06 20:21 37.24372 -4.78033 11400 ft 246 kts 201°
2026-05-06 20:21 37.22786 -4.78816 11150 ft 243 kts 201°
2026-05-06 20:21 37.21213 -4.79591 10897 ft 242 kts 201°
2026-05-06 20:22 37.19600 -4.80166 10658 ft 241 kts 186°
2026-05-06 20:22 37.17942 -4.80217 10419 ft 241 kts 179°
2026-05-06 20:22 37.16247 -4.80194 10175 ft 241 kts 179°
2026-05-06 20:22 37.14568 -4.80174 9931 ft 241 kts 179°
2026-05-06 20:23 37.12929 -4.80156 9808 ft 240 kts 179°
2026-05-06 20:23 37.11244 -4.80139 9679 ft 240 kts 179°
2026-05-06 20:23 37.09584 -4.80120 9547 ft 238 kts 179°
2026-05-06 20:23 37.07937 -4.80101 9396 ft 238 kts 179°
2026-05-06 20:24 37.06283 -4.80084 9262 ft 237 kts 179°
2026-05-06 20:24 37.04634 -4.80068 9131 ft 236 kts 179°
2026-05-06 20:24 37.02992 -4.80051 9013 ft 235 kts 179°
2026-05-06 20:24 37.01352 -4.80032 8783 ft 237 kts 179°
2026-05-06 20:25 36.99702 -4.80011 8479 ft 236 kts 179°
2026-05-06 20:25 36.98065 -4.79992 8160 ft 235 kts 179°
2026-05-06 20:25 36.96432 -4.79976 7829 ft 235 kts 179°
2026-05-06 20:25 36.94793 -4.79959 7507 ft 236 kts 179°
2026-05-06 20:26 36.93178 -4.79851 7172 ft 236 kts 169°
2026-05-06 20:26 36.91611 -4.79255 6851 ft 235 kts 160°
2026-05-06 20:26 36.90067 -4.78575 6520 ft 235 kts 160°
2026-05-06 20:26 36.88520 -4.77900 6179 ft 236 kts 159°
2026-05-06 20:27 36.86975 -4.77216 5834 ft 235 kts 155°
2026-05-06 20:27 36.85532 -4.76280 5511 ft 233 kts 150°
2026-05-06 20:27 36.84108 -4.75317 5184 ft 233 kts 150°
2026-05-06 20:27 36.82681 -4.74355 4855 ft 233 kts 151°
2026-05-06 20:28 36.81258 -4.73395 4523 ft 232 kts 151°
2026-05-06 20:28 36.79840 -4.72442 4195 ft 231 kts 151°
2026-05-06 20:28 36.78427 -4.71488 3866 ft 231 kts 149°
2026-05-06 20:28 36.77237 -4.70185 3542 ft 228 kts 124°
2026-05-06 20:29 36.76486 -4.68469 3252 ft 227 kts 117°
2026-05-06 20:29 36.75767 -4.66711 2901 ft 228 kts 117°
2026-05-06 20:29 36.75042 -4.64947 2568 ft 227 kts 117°
2026-05-06 20:29 36.74344 -4.63275 2282 ft 225 kts 117°
2026-05-06 20:30 36.73636 -4.61585 1989 ft 213 kts 118°
2026-05-06 20:30 36.72342 -4.58497 1478 ft 188 kts 117°
2026-05-06 20:30 36.71763 -4.57116 1191 ft 174 kts 118°
2026-05-06 20:31 36.71242 -4.55872 1013 ft 155 kts 117°
2026-05-06 20:31 36.70761 -4.54716 738 ft 145 kts 117°
2026-05-06 20:31 36.70304 -4.53633 588 ft 140 kts 117°
2026-05-06 20:31 36.69858 -4.52577 399 ft 138 kts 117°
2026-05-06 20:32 36.69421 -4.51533 221 ft 136 kts 117°
2026-05-06 20:32 36.68998 -4.50523 58 ft 133 kts 118°
2026-05-06 20:32 36.68621 -4.49610 47 ft 100 kts 117°
2026-05-06 20:32 36.68424 -4.49158 47 ft 37 kts 117°
2026-05-06 20:33 36.68312 -4.48974 44 ft 23 kts 137°
2026-05-06 20:33 36.68208 -4.48879 40 ft 8 kts 151°
2026-05-06 20:33 36.68162 -4.48855 39 ft 7 kts 181°
2026-05-06 20:33 36.68137 -4.48890 40 ft 6 kts 250°
2026-05-06 20:34 36.68163 -4.48981 40 ft 13 kts 298°
2026-05-06 20:34 36.68203 -4.49073 40 ft 11 kts 297°
2026-05-06 20:34 36.68237 -4.49154 39 ft 10 kts 297°
2026-05-06 20:34 36.68277 -4.49256 40 ft 15 kts 291°
2026-05-06 20:35 36.68244 -4.49359 40 ft 13 kts 222°
2026-05-06 20:35 36.68185 -4.49423 42 ft 10 kts 222°
2026-05-06 20:35 36.68115 -4.49503 42 ft 15 kts 221°
2026-05-06 20:35 36.68039 -4.49587 42 ft 14 kts 221°
2026-05-06 20:36 36.67972 -4.49661 42 ft 12 kts 222°
2026-05-06 20:36 36.67907 -4.49732 42 ft 12 kts 221°
2026-05-06 20:36 36.67850 -4.49795 42 ft 10 kts 221°
2026-05-06 20:36 36.67793 -4.49788 40 ft 10 kts 137°
2026-05-06 20:37 36.67737 -4.49711 42 ft 14 kts 131°
2026-05-06 20:37 36.67671 -4.49618 42 ft 14 kts 132°
2026-05-06 20:37 36.67620 -4.49546 42 ft 8 kts 128°
2026-05-06 20:37 36.67630 -4.49507 42 ft 4 kts 39°
2026-05-06 20:38 36.67647 -4.49487 42 ft 3 kts 43°
2026-05-06 20:38 36.67659 -4.49473 42 ft 2 kts 43°
2026-05-06 20:38 36.67665 -4.49466 42 ft 0 kts 43°